This is the latest recevied weather packets stored in our database for station/object K6CED. If no packets are shown the sender has not sent any weather packets the latest 10 day(s).
| Time | Temp. | Humidity | Pressure | Rain* | Wind** | Luminosity | Snow |
|---|---|---|---|---|---|---|---|
| 1777946528 | 16.11° C | 65% | 1016.2 hPa | 0 mm | - | 27 W/m² | - |
| 1777946226 | 16.11° C | 62% | 1016.3 hPa | 0 mm | - | 31 W/m² | - |
| 1777945923 | 16.11° C | 61% | 1016.2 hPa | 0 mm | - | 34 W/m² | - |
| 1777945620 | 16.11° C | 62% | 1016.3 hPa | 0 mm | - | 38 W/m² | - |
| 1777945316 | 16.11° C | 63% | 1016.1 hPa | 0 mm | - | 41 W/m² | - |
| 1777945014 | 16.67° C | 65% | 1016.2 hPa | 0 mm | - | 48 W/m² | - |
| 1777944711 | 16.67° C | 61% | 1016.3 hPa | 0 mm | - | 47 W/m² | - |
| 1777944409 | 16.67° C | 61% | 1016.1 hPa | 0 mm | - | 63 W/m² | - |
| 1777944106 | 16.67° C | 61% | 1016.1 hPa | 0 mm | - | 78 W/m² | - |
| 1777943802 | 16.67° C | 59% | 1016.3 hPa | 0 mm | - | 76 W/m² | - |
| 1777943499 | 16.67° C | 59% | 1016.2 hPa | 0 mm | - | 70 W/m² | - |
| 1777943199 | 17.22° C | 58% | 1016.2 hPa | 0 mm | - | 68 W/m² | - |
| 1777942897 | 17.22° C | 58% | 1016.3 hPa | 0 mm | - | 74 W/m² | - |
| 1777942592 | 17.22° C | 58% | 1016.3 hPa | 0 mm | - | 89 W/m² | - |
| 1777942290 | 17.78° C | 56% | 1016.3 hPa | 0 mm | - | 107 W/m² | - |
| 1777941987 | 17.78° C | 55% | 1016.2 hPa | 0 mm | - | 98 W/m² | - |
| 1777941683 | 18.33° C | 55% | 1016.3 hPa | 0 mm | - | 116 W/m² | - |
| 1777941381 | 18.33° C | 54% | 1016.1 hPa | 0 mm | - | 235 W/m² | - |
| 1777941078 | 18.89° C | 53% | 1016.1 hPa | 0 mm | - | 272 W/m² | - |
| 1777940774 | 18.89° C | 53% | 1016.2 hPa | 0 mm | - | 254 W/m² | - |
| 1777940467 | 18.33° C | 54% | 1016.2 hPa | 0 mm | - | 236 W/m² | - |
| 1777940164 | 19.44° C | 53% | 1016.3 hPa | 0 mm | - | 346 W/m² | - |
| 1777939862 | 19.44° C | 52% | 1016.1 hPa | 0 mm | - | 353 W/m² | - |
| 1777939558 | 19.44° C | 53% | 1016.1 hPa | 0 mm | - | 392 W/m² | - |
| 1777939256 | 18.89° C | 54% | 1016.2 hPa | 0 mm | - | 412 W/m² | - |
* Rain latest hour (hover to see other rain measurements)
** Current wind speed in m/s (hover to see current wind gust speed)